This is the latest recevied weather packets stored in our database for station/object IZ5ILU-16. If no packets are shown the sender has not sent any weather packets the latest 10 day(s).
| Time | Temp. | Humidity | Pressure | Rain* | Wind** | Luminosity | Snow |
|---|---|---|---|---|---|---|---|
| 1787495144 | 28.89° C | 39% | 1015.6 hPa | 0 mm | - | - | - |
| 1787494544 | 28.89° C | 37% | 1015.6 hPa | 0 mm | - | - | - |
| 1787493944 | 28.89° C | 37% | 1015.6 hPa | 0 mm | - | - | - |
| 1787493345 | 28.33° C | 45% | 1015.8 hPa | 0 mm | - | - | - |
| 1787492744 | 28.33° C | 40% | 1015.9 hPa | 0 mm | - | - | - |
| 1787492144 | 28.33° C | 44% | 1016 hPa | 0 mm | - | - | - |
| 1787491544 | 28.33° C | 41% | 1016 hPa | 0 mm | - | - | - |
| 1787490944 | 27.78° C | 44% | 1016.1 hPa | 0 mm | - | - | - |
| 1787490344 | 27.78° C | 47% | 1016.2 hPa | 0 mm | - | - | - |
| 1787489745 | 27.22° C | 45% | 1016.2 hPa | 0 mm | - | - | - |
| 1787489144 | 27.22° C | 47% | 1016.3 hPa | 0 mm | - | - | - |
| 1787488544 | 26.67° C | 49% | 1016.4 hPa | 0 mm | - | - | - |
| 1787487944 | 26.67° C | 55% | 1016.4 hPa | 0 mm | - | - | - |
| 1787487345 | 26.11° C | 52% | 1016.5 hPa | 0 mm | - | - | - |
| 1787486745 | 26.11° C | 54% | 1016.5 hPa | 0 mm | - | - | - |
| 1787486144 | 26.11° C | 52% | 1016.6 hPa | 0 mm | - | - | - |
| 1787485544 | 25.56° C | 55% | 1016.7 hPa | 0 mm | - | - | - |
| 1787484945 | 26.11° C | 52% | 1016.8 hPa | 0 mm | - | - | - |
| 1787484345 | 25.56° C | 54% | 1016.9 hPa | 0 mm | - | - | - |
| 1787483745 | 25.56° C | 56% | 1017 hPa | 0 mm | - | - | - |
| 1787483145 | 25.56° C | 56% | 1017.1 hPa | 0 mm | - | - | - |
| 1787482545 | 25° C | 58% | 1017.2 hPa | 0 mm | - | - | - |
| 1787481945 | 25° C | 58% | 1017.3 hPa | 0 mm | - | - | - |
| 1787481345 | 25° C | 58% | 1017.4 hPa | 0 mm | - | - | - |
| 1787480745 | 25° C | 57% | 1017.4 hPa | 0 mm | - | - | - |
* Rain latest hour (hover to see other rain measurements)
** Current wind speed in m/s (hover to see current wind gust speed)